This demonstration page uses our WeatherBlox Daily Observations layout. Learn more.

Left ArrowRight Arrow

38.89511, -77.03637

Hourly Observations for January 24, 2015

Temp ( °F °C ) Dew Point ( °F °C ) Humidity (%) Winds ( mph kmh ) Pressure ( in mb ) Visibility ( mi km ) Precip ( " mm )
12:01 am 00:01 Cloudy with Rain 37 3 32 0 81 81 NE 10 17 29.85 1011 3 4 0.03 0.76
12:50 am 00:50 Cloudy with Rain 37 3 34 1 87 87 N 5 7 29.83 1010 3 5 0.00 0.00
12:52 am 00:52 Cloudy with Rain 37 2.8 33 0.6 86 86 N 3 6 29.83 1010 3 5 0.25 6.35
12:59 am 00:59 Cloudy with Rain 37 3 34 1 87 87 Calm 29.83 1010 3 4 0.03 0.76
1:30 am 01:30 Cloudy with Rain 37 3 34 1 87 87 NNE 6 9 29.80 1009 2 3 0.00 0.00
1:47 am 01:47 Cloudy with Light Rain 37 3 32 0 81 81 NNE 6 9 29.80 1009 2 3 0.14 3.56
1:52 am 01:52 Cloudy with Light Rain 37 2.8 32 0 82 82 NNE 8 13 29.78 1009 3 5 0.15 3.81
2:16 am 02:16 Cloudy with Light Rain 37 3 32 0 81 81 NNE 8 13 29.77 1008 3 5 0.00 0.00
2:52 am 02:52 Cloudy with Light Rain 37 2.8 32 0 82 82 NE 10 17 29.74 1007 3 5 0.06 1.52
2:54 am 02:54 Cloudy with Light Rain 37 3 32 0 81 81 NE 8 13 29.74 1007 4 6 0.00 0.00
3:04 am 03:04 Cloudy with Light Rain 37 3 32 0 81 81 NNE 8 13 29.74 1007 3 4 0.02 0.51
3:16 am 03:16 Cloudy with Light Rain 37 3 32 0 81 81 NNE 7 11 29.71 1006 3 5 0.00 0.00
3:23 am 03:23 Cloudy with Light Rain 37 3 32 0 81 81 NE 6 9 29.71 1006 3 5 0.04 1.02
3:52 am 03:52 Cloudy 37 2.8 32 0 82 82 NE 8 13 29.68 1005 7 11 0.04 1.02
4:52 am 04:52 Cloudy 37 2.8 32 0 82 82 NE 8 13 29.64 1004 10 16 0.00 0.00
5:52 am 05:52 Cloudy with Light Rain 37 2.8 33 0.6 86 86 N 8 13 29.62 1003 6 10 0.01 0.25
6:33 am 06:33 Cloudy with Mist and Fog 37 3 34 1 87 87 N 8 13 29.59 1002 6 10 0.00 0.03
6:52 am 06:52 Cloudy with Mist and Fog 38 3.3 33 0.6 83 83 NNW 12 19 29.60 1002 6 10 0.00 0.03
7:01 am 07:01 Cloudy 37 3 34 1 87 87 NNW 12 19 29.59 1002 7 11 0.00 0.00
7:25 am 07:25 Cloudy with Drizzle 37 3 34 1 87 87 N 12 19 29.59 1002 5 8 0.00 0.03
7:49 am 07:49 Cloudy with Light Rain 37 3 34 1 87 87 N 9 15 29.56 1001 3 4 0.00 0.03
7:52 am 07:52 Cloudy with Light Rain 38 3.3 33 0.6 83 83 N 9 15 29.57 1002 3 4 0.00 0.03
8:17 am 08:17 Cloudy with Drizzle 37 3 34 1 87 87 NW 8 13 29.59 1002 3 5 0.00 0.03
8:25 am 08:25 Cloudy with Drizzle 37 3 34 1 87 87 NW 12 19 29.59 1002 3 4 0.00 0.03
8:39 am 08:39 Cloudy with Drizzle 37 3 34 1 87 87 NNW 13 20 29.56 1001 2 3 0.00 0.03
8:43 am 08:43 Cloudy with Drizzle 37 3 34 1 87 87 NNW 12 19 29.56 1001 2 2 0.00 0.03
8:52 am 08:52 Cloudy with Drizzle 38 3.3 33 0.6 83 83 NNW 10 17 29.55 1001 2 3 0.00 0.03
8:57 am 08:57 Cloudy with Drizzle 37 3 34 1 87 87 N 9 15 29.56 1001 2 3 0.00 0.03
9:01 am 09:01 Cloudy with Drizzle 37 3 34 1 87 87 NNW 9 15 29.56 1001 2 3 0.00 0.03
9:17 am 09:17 Cloudy with Drizzle 37 3 34 1 87 87 N 8 13 29.56 1001 3 5 0.00 0.03
9:47 am 09:47 Cloudy 39 4 34 1 81 81 NNW 6 9 29.56 1001 9 14 0.00 0.00
9:52 am 09:52 Cloudy 39 3.9 34 1.1 82 82 N 6 9 29.55 1001 10 16 0.00 0.03
10:52 am 10:52 Cloudy 40 4.4 34 1.1 79 79 NW 8 13 29.56 1001 10 16 0.00 0.00
11:52 am 11:52 Cloudy 40 4.4 33 0.6 77 77 NW 12 19 29.49 999 10 16 0.00 0.00
12:52 pm 12:52 Cloudy 41 5 34 1.1 76 76 NW 14 22 29.48 998 10 16 0.00 0.00
1:52 pm 13:52 Cloudy with Light Rain 41 5 34 1.1 76 76 NW 16 26 29.47 998 10 16 0.00 0.03
2:40 pm 14:40 Cloudy 43 6 34 1 71 71 NW 8 13 29.47 998 10 16 0.00 0.00
2:52 pm 14:52 Cloudy 43 6.1 33 0.6 68 68 WNW 8 13 29.48 998 10 16 0.00 0.03
3:52 pm 15:52 Mostly Cloudy 43 6.1 32 0 65 65 WNW 10 17 29.50 999 10 16 0.00 0.00
4:52 pm 16:52 Partly Cloudy 44 6.7 27 -2.8 51 51 WNW 15 24 29.52 1000 10 16 0.00 0.00
5:52 pm 17:52 Mostly Clear 43 6.1 25 -3.9 49 49 WNW 12 19 29.55 1001 10 16 0.00 0.00
6:52 pm 18:52 Mostly Clear 43 6.1 22 -5.6 43 43 WNW 17 28 29.58 1002 10 16 0.00 0.00
7:52 pm 19:52 Clear 41 5 23 -5 49 49 WNW 7 11 29.61 1003 10 16 0.00 0.00
8:52 pm 20:52 Clear 41 5 24 -4.4 51 51 W 6 9 29.62 1003 10 16 0.00 0.00
9:52 pm 21:52 Partly Cloudy 40 4.4 24 -4.4 53 53 W 7 11 29.64 1004 10 16 0.00 0.00
10:52 pm 22:52 Mostly Cloudy 40 4.4 25 -3.9 55 55 NW 8 13 29.66 1005 10 16 0.00 0.00
11:52 pm 23:52 Cloudy 41 5 26 -3.3 55 55 WNW 9 15 29.68 1005 10 16 0.00 0.00

Powered by AerisWeather